Regional Weather Roundup
Issued by NWS Goodland, KS

Home | Current Version | Previous Version | Graphics & Text | Print | Product List | Glossary On
Versions: 1 2 3 4 5 6 7 8 9 10 11 12 13 14 15 16 17 18 19 20 21 22 23 24 25 26 27 28 29 30 31 32 33 34 35 36 37 38 39 40 41 42 43 44 45 46 47 48 49 50
000
ASUS43 KGLD 011959
RWRGLD

GOODLAND FORECAST AREA HOURLY WEATHER ROUNDUP
NATIONAL WEATHER SERVICE GOODLAND KS
200 PM MDT TUE SEP 01 2015

...OFFICIAL OBSERVATIONS...

CITY           SKY/WX    TMP DP  RH WIND       PRES   REMARKS
GOODLAND KS    MOSUNNY   89  53  29 VRB5      29.99S
HILL CITY KS   SUNNY     93  59  31 VRB3      29.91F
IMPERIAL NEB   SUNNY     91  51  25 VRB5      29.95F
MCCOOK NEB     SUNNY     90  58  33 S8        29.92S
AKRON CO       SUNNY     89  35  14 VRB5      30.04F
BURLINGTON CO  MOSUNNY   88  50  27 CALM      30.03S
LIMON CO       SUNNY     84  42  22 VRB3      30.10F
$$

...UNOFFICIAL OBSERVATIONS...

CITY           SKY/WX    TMP DP  RH WIND       PRES   REMARKS
COLBY KS       SUNNY     90  61  37 W6        29.98S
GOVE KS          N/A     93  32  11 MISG        N/A
LENORA KS        N/A     89  32  13 MISG        N/A
NORTON KS      SUNNY     90  55  31 SW7       29.91S
TRENTON NEB      N/A     92  32  12 CALM        N/A
KIT CARSON CO    N/A     89  53  29 MISG        N/A
YUMA CO          N/A     90  48  23 CALM        N/A
$$



USA.gov is the U.S. government's official web portal to all federal, state and local government web resources and services.